Weather History for Trabzon, Turkey

Change the Weather History Date:

Wednesday, April 3, 2013

  Actual Average Record
Temperature  
Mean Temperature 58 °F -  
Max Temperature 68 °F 57 °F 68 °F (2013)
Min Temperature 48 °F 47 °F 33 °F (2004)
Degree Days  
Heating Degree Days 7    
Growing Degree Days 8 (Base 50)    
Moisture  
Dew Point 51 °F    
Average Humidity 90    
Maximum Humidity 100    
Minimum Humidity 46    
Precipitation  
Precipitation 0.00 in - - ()
Sea Level Pressure  
Sea Level Pressure 29.88 in    
Wind  
Wind Speed 2 mph ()    
Max Wind Speed 9 mph    
Max Gust Speed 16 mph    
Visibility 4.7 miles    
Events Fog    
Averages and records for this station are not official NWS values.
T = Trace of Precipitation, MM = Missing Value Source: Averaged Metar Reports

Daily Weather History Graph

Daily Weather History Graph

Search for Another Location

Airport:

Trip Planner

Search our weather history database for the weather conditions in past years. The results will help you decide how hot, cold, wet, or windy it might be!

Date:

Astronomy

Apr. 03, 2013 Rise Set
Actual Time 6:01 AM EEST 6:47 PM EEST
Civil Twilight 5:33 AM EEST 7:15 PM EEST
Nautical Twilight 5:00 AM EEST 7:48 PM EEST
Astronomical Twilight 4:26 AM EEST 8:22 PM EEST
Moon 1:27 AM EEST (4/3) 11:33 AM EEST (4/3)
Length of Visible Light 13h 42m
Length of Day
12h 46m
Waning Gibbous, 48% of the Moon is Illuminated
Apr 3
Waning Gibbous
Apr 10
New
Apr 18
First Quarter
Apr 25
Full
May 2
Last Quarter

Hourly Weather History & Observations

Time (EEST) Temp. Dew Point Humidity Pressure Visibility Wind Dir Wind Speed Gust Speed Precip Events Conditions
12:20 AM 51.8 °F 50.0 °F 94% 30.01 in 3.7 mi SSE 3.5 mph - N/A   Scattered Clouds
12:50 AM 50.0 °F 50.0 °F 100% 30.01 in 2.5 mi Calm Calm - N/A   Scattered Clouds
1:08 AM 50.0 °F 50.0 °F 100% 30.01 in 1.2 mi Variable 1.2 mph - N/A Fog Patches of Fog
1:20 AM 50.0 °F 50.0 °F 100% 30.01 in 2.8 mi SE 3.5 mph - N/A Fog Patches of Fog
1:31 AM 50.0 °F 48.2 °F 94% 30.01 in 0.1 mi Variable 1.2 mph - N/A Fog Fog
1:50 AM 50.0 °F 48.2 °F 94% 29.98 in 0.1 mi Variable 2.3 mph - N/A Fog Fog
2:05 AM 50.0 °F 48.2 °F 94% 29.98 in 0.3 mi Calm Calm - N/A Fog Patches of Fog
2:20 AM 50.0 °F 50.0 °F 100% 29.98 in 2.5 mi Calm Calm - N/A Fog Patches of Fog
2:50 AM 50.0 °F 50.0 °F 100% 29.98 in 1.1 mi Calm Calm - N/A Fog Patches of Fog
3:00 AM 50 °F 49 °F 95% 29.99 in 1 mi Calm Calm - - Fog Patches of Fog
3:20 AM 50.0 °F 50.0 °F 100% 29.98 in 2.5 mi South 3.5 mph 16.1 mph N/A Fog Patches of Fog
3:50 AM 50.0 °F 50.0 °F 100% 29.95 in 2.5 mi Calm Calm - N/A Fog Patches of Fog
4:20 AM 50.0 °F 50.0 °F 100% 29.95 in 2.5 mi Calm Calm - N/A Fog Patches of Fog
4:50 AM 50.0 °F 50.0 °F 100% 29.95 in 2.5 mi Calm Calm - N/A Fog Patches of Fog
5:20 AM 50.0 °F 50.0 °F 100% 29.95 in 2.5 mi Calm Calm - N/A Fog Patches of Fog
5:50 AM 50.0 °F 50.0 °F 100% 29.92 in 2.8 mi Calm Calm - N/A Fog Patches of Fog
6:14 AM 50.0 °F 50.0 °F 100% 29.92 in - Calm Calm - N/A   Clear
6:20 AM 50.0 °F 50.0 °F 100% 29.92 in - Calm Calm - N/A   Clear
6:50 AM 51.8 °F 50.0 °F 94% 29.92 in - Calm Calm - N/A   Clear
7:20 AM 51.8 °F 50.0 °F 94% 29.92 in - Calm Calm - N/A   Clear
7:50 AM 53.6 °F 50.0 °F 88% 29.92 in - Calm Calm - N/A   Clear
8:20 AM 53.6 °F 51.8 °F 94% 29.92 in - East 3.5 mph - N/A   Clear
8:50 AM 51.8 °F 50.0 °F 94% 29.92 in 3.7 mi East 4.6 mph - N/A   Unknown
9:00 AM 53 °F 50 °F 86% 29.93 in 4 mi East 4.6 mph - -   Mist
9:20 AM 53.6 °F 51.8 °F 94% 29.92 in 4.3 mi East 5.8 mph - N/A   Partly Cloudy
9:50 AM 53.6 °F 51.8 °F 94% 29.89 in 4.3 mi East 4.6 mph - N/A   Partly Cloudy
10:20 AM 55.4 °F 51.8 °F 88% 29.89 in 5.0 mi East 4.6 mph - N/A   Partly Cloudy
10:50 AM 55.4 °F 50.0 °F 82% 29.89 in 5.0 mi East 4.6 mph - N/A   Partly Cloudy
11:20 AM 55.4 °F 50.0 °F 82% 29.89 in 5.0 mi ENE 4.6 mph - N/A   Partly Cloudy
11:50 AM 55.4 °F 51.8 °F 88% 29.86 in 6.2 mi East 5.8 mph - N/A   Partly Cloudy
12:20 PM 55.4 °F 51.8 °F 88% 29.86 in 6.2 mi East 5.8 mph - N/A   Partly Cloudy
12:50 PM 55.4 °F 53.6 °F 94% 29.83 in 6.2 mi East 8.1 mph - N/A   Partly Cloudy
1:20 PM 55.4 °F 51.8 °F 88% 29.83 in 6.2 mi East 9.2 mph - N/A   Partly Cloudy
1:50 PM 55.4 °F 51.8 °F 88% 29.83 in 4.3 mi East 8.1 mph - N/A   Partly Cloudy
2:20 PM 55.4 °F 53.6 °F 94% 29.80 in 5.6 mi East 6.9 mph - N/A   Partly Cloudy
2:50 PM 57.2 °F 53.6 °F 88% 29.80 in 6.2 mi East 4.6 mph - N/A   Partly Cloudy
3:00 PM 57 °F 53 °F 82% 29.82 in 12 mi East 4.6 mph - -   Scattered Clouds
3:20 PM 57.2 °F 51.8 °F 82% 29.80 in 6.2 mi ESE 4.6 mph - N/A   Partly Cloudy
3:50 PM 57.2 °F 51.8 °F 82% 29.80 in 6.2 mi East 4.6 mph - N/A   Partly Cloudy
4:20 PM 55.4 °F 51.8 °F 88% 29.80 in 6.2 mi East 5.8 mph - N/A   Partly Cloudy
4:50 PM 57.2 °F 53.6 °F 88% 29.80 in 6.2 mi East 5.8 mph - N/A   Partly Cloudy
5:20 PM 55.4 °F 51.8 °F 88% 29.80 in 6.2 mi North 4.6 mph - N/A   Partly Cloudy
5:50 PM 55.4 °F 51.8 °F 88% 29.80 in 6.2 mi Calm Calm - N/A   Partly Cloudy
6:20 PM 55.4 °F 51.8 °F 88% 29.80 in 6.2 mi Calm Calm - N/A   Scattered Clouds
6:50 PM 55.4 °F 51.8 °F 88% 29.80 in 6.2 mi Variable 2.3 mph - N/A   Scattered Clouds
7:20 PM 55.4 °F 53.6 °F 94% 29.80 in 5.6 mi Variable 1.2 mph - N/A   Scattered Clouds
7:50 PM 55.4 °F 53.6 °F 94% 29.80 in 6.2 mi Calm Calm - N/A   Scattered Clouds
8:20 PM 57.2 °F 53.6 °F 88% 29.80 in 6.2 mi Calm Calm - N/A   Scattered Clouds
8:50 PM 55.4 °F 51.8 °F 88% 29.80 in 6.2 mi Variable 1.2 mph - N/A   Scattered Clouds
9:00 PM 56 °F 52 °F 83% 29.81 in 12 mi 1.2 mph - -   Partly Cloudy
9:20 PM 55.4 °F 53.6 °F 94% 29.77 in 5.6 mi Calm Calm - N/A   Scattered Clouds
9:50 PM 57.2 °F 53.6 °F 88% 29.77 in 6.2 mi ESE 4.6 mph - N/A   Scattered Clouds
10:20 PM 62.6 °F 48.2 °F 59% 29.77 in 4.3 mi Calm Calm - N/A   Scattered Clouds
10:50 PM 68.0 °F 46.4 °F 46% 29.74 in 6.2 mi Variable 2.3 mph - N/A   Scattered Clouds
11:20 PM 55.4 °F 51.8 °F 88% 29.74 in 6.2 mi Calm Calm - N/A   Scattered Clouds
11:50 PM 59.0 °F 50.0 °F 72% 29.74 in 5.6 mi Variable 1.2 mph - N/A   Scattered Clouds